SCP
0 0 -0 0 0 0 0 0 0 0 0 0 0 0 0 0 0 0 0 0 -0 -0 -0 -0 -0 -0 -0 -0 -0 0 0 -0 -0 -0 -0 -0 -0 -0 -0 -0 -0 -0 -0 -0 -0 -0 -0 -0 -0
0 0 0 0 0 0 0 0 0 0 0 0 0 0 0 0 0 0 0 0 -0 0 0 0 -0 -0 -0 -0 -0 -0 -0 -0 -0 -0 -0 -0 -0 -0 -0 -0 -0 -0 -0 -0 -0 -0 -0 -0 -0
0 0 0 0 0 0 0 0 0 0 0 0 0 0 0 0 0 0 0 0 0 0 0 0 -0 -0 -0 -0 -0 -0 -0 -0 -0 -0 -0 -0 -0 -0 -0 -0 -0 -0 -0 -0 -0 -0 -0 -0 -0
0 0 0 0 0 0 0 0 0 0 0 0 0 0 0 0 0 0 0 0 0 0 0 0 -0 -0 -0 -0 -0 -0 -0 -0 -0 -0 -0 -0 -0 -0 -0 -0 -0 -0 -0 -0 -0 -0 -0 -0 -0
0 0 0 0 0 0 0 0 0 -0 0 0 0 0 0 0 0 0 0 0 0 0 0 0 0 -0 -0 -0 -0 -0 -0 -0 -0 -0 -0 -0 -0 -0 -0 -0 -0 -0 -0 -0 -0 -0 -0 -0 -0
0 0 0 0 0 0 0 0 0 0 0 0 0 0 0 0 0 0 0 0 0 0 0 0 0 0 -0 -0 -0 -0 -0 -0 -0 -0 -0 -0 -0 -0 -0 -0 -0 -0 -0 -0 -0 -0 -0 -0 -0
0 0 0 0 0 0 0 0 0 0 0 0 0 0 0 0 0 0 0 0 0 0 0 0 0 0 0 0 0 0 -0 -0 -0 -0 -0 -0 -0 -0 -0 -0 -0 -0 -0 -0 -0 0 0 -0 0
0 0 0 0 0 0 0 0 0 0 0 0 0 0 0 0 0 0 0 0 0 0 0 0 0 0 0 0 0 0 0 0 0 0 0 0 0 0 0 0 -0 -0 -0 -0 0 -0 -0 0 -0
0 0 0 0 0 0 0 0 0 0 0 0 0 0 0 0 0 0 0 0 0 0 0 0 0 0 0 0 0 0 0 0 0 0 0 0 0 0 0 0 0 -0 -0 -0 0 0 -0 -0 -0
0 0 0 0 0 0 -0 0 0 0 0 0 0 0 0 0 0 0 0 0 0 0 0 0 0 0 0 0 0 0 0 0 0 0 0 0 0 0 0 0 0 0 0 0 0 -0 -0 -0 0
0 0 0 0 0 0 -0 0 0 0 0 0 0 0 0 0 0 0 0 0 0 0 0 0 0 0 0 0 0 0 0 0 0 0 0 0 0 0 0 0 0 0 0 0 0 -0 -0 0 0
0 0 0 0 0 0 -0 -0 0 0 0 0 0 0 0 0 0 0 0 0 0 0 0 0 0 0 0 0 0 0 0 0 0 0 0 0 0 0 0 0 0 0 0 0 0 0 0 0 0
0 0 0 0 0 0 0 -0 0 0 0 0 0 0 0 0 0 0 0 0 0 0 0 0 0 0 0 0 0 0 0 0 0 0 0 0 0 0 0 0 0 0 0 0 0 0 0 0 0
0 0 0 0 0 0 0 0 -0 0 0 0 0 0 0 0 0 0 0 0 0 0 0 0 0 0 0 0 0 0 0 0 0 0 0 0 0 0 0 0 0 0 0 0 0 0 0 0 0
0 0 0 0 0 0 0 0 0 -0 -0 0 0 0 0 0 0 0 0 0 0 0 0 0 0 0 0 0 0 0 0 0 0 0 0 0 0 0 0 0 0 0 0 0 0 0 0 0 0
0 0 0 0 0 0 0 0 0 0 0 0 0 0 0 0 0 0 0 0 0 0 0 0 0 0 0 0 0 0 0 0 0 0 0 0 0 0 0 0 0 0 0 0 0 0 0 0 0
0 0 -0 -0 -0 0 0 0 0 0 0 0 0 0 0 0 0 0 0 0 0 0 0 0 0 0 0 0 0 0 0 0 0 0 0 0 0 0 0 0 0 0 0 0 0 0 0 0 0
0 0 0 -0 -0 0 0 0 -0 0 0 0 0 0 0 0 0 0 0 0 0 0 0 0 0 0 0 0 0 0 0 0 0 0 0 0 0 0 0 0 0 0 0 0 0 0 0 0 0
0 0 0 -0 0 -0 -0 0 0 0 0 0 0 0 0 0 0 0 0 0 0 0 0 0 0 0 0 0 0 0 0 0 0 0 0 0 0 0 0 0 0 0 0 0 0 0 0 0 0
0 0 0 0 0 0 -0 -0 0 0 0 0 0 0 0 0 0 0 1 1 0 0 0 0 0 0 0 0 0 0 0 0 0 0 0 0 0 0 0 0 0 0 0 0 0 0 0 0 0
0 0 0 0 0 0 -0 -0 0 0 0 0 0 0 0 0 0 0 1 1 0 0 0 0 0 0 0 0 0 0 0 0 0 0 0 0 0 0 0 0 0 0 0 0 0 0 0 0 0
0 0 0 0 0 0 0 -0 -0 0 0 0 0 0 0 0 0 0 1 1 1 1 0 0 0 0 0 0 0 0 0 0 0 0 0 0 0 0 0 0 0 0 0 0 0 0 0 0 0
0 0 0 0 0 0 0 0 -0 -0 0 0 0 0 0 0 0 0 1 1 1 1 0 0 0 0 0 0 0 0 0 0 0 0 0 0 0 0 0 0 0 0 0 0 0 0 0 0 0
0 0 0 0 0 0 0 0 -0 -0 -0 0 0 0 0 0 0 0 0 0 0 0 1 0 0 0 0 0 0 0 0 0 0 0 0 0 0 0 0 0 0 0 0 0 0 0 0 0 0
0 0 0 0 0 0 0 0 -0 0 -0 0 0 0 0 0 0 0 0 0 0 0 0 0 0 0 0 0 0 0 0 0 0 0 0 0 0 0 0 0 0 0 0 0 0 0 0 0 0
0 0 0 0 0 0 -0 0 -0 -0 -0 0 0 0 0 0 0 0 0 0 0 0 0 0 0 0 0 0 0 0 0 0 0 0 0 0 0 0 0 0 0 0 0 0 0 0 0 0 0
0 0 0 0 0 0 -0 -0 0 0 0 0 0 0 0 0 0 0 0 0 0 0 0 0 0 0 0 0 0 0 0 0 -0 -0 -0 -0 -0 0 -0 -0 -0 0 0 0 0 0 0 0 0
0 0 0 0 0 -0 0 -0 0 -0 -0 -0 -0 0 0 0 0 0 0 0 0 0 0 0 0 0 0 0 0 0 0 -0 -0 -0 -0 -0 -0 -0 -0 0 0 0 0 0 0 0 0 0 0
0 0 0 0 0 0 -0 -0 -0 -0 0 0 0 0 0 0 0 0 0 0 0 0 0 0 0 0 0 0 0 0 0 -0 -0 -0 -0 -0 -0 -0 0 0 0 0 0 0 0 0 0 0 0
0 0 0 0 0 0 0 -0 -0 -0 -0 -0 -0 0 0 0 0 0 0 0 0 0 0 0 0 0 0 0 0 0 0 0 0 0 0 0 0 0 0 0 0 0 0 0 0 0 0 0 0
Wind_Speed_500mb
23 25 30 3 7 8 7 10 7 7 4 4 9 14 15 9 7 7 18 35 46 51 52 45 41 41 40 39 42 41 37 36 31 27 28 39 38 29 27 22 17 16 13 15 13 16 17 21 25
22 22 14 3 8 3 10 9 5 5 3 11 23 21 9 4 7 19 40 32 32 48 53 47 46 43 42 43 50 41 41 35 32 31 36 50 40 32 27 22 19 17 13 16 16 22 24 25 25
17 18 5 5 6 8 8 6 12 2 3 2 6 15 7 12 13 31 20 36 37 51 53 50 47 43 41 44 54 47 44 36 31 32 37 39 37 33 28 22 12 19 21 20 21 24 24 24 23
9 3 1 4 13 13 6 14 33 14 5 7 12 10 7 8 28 26 27 38 42 51 52 51 47 43 42 46 50 45 39 35 34 33 32 30 29 27 20 13 12 22 22 21 23 24 23 22 20
3 5 3 5 12 9 1 15 23 13 5 14 15 10 9 28 19 25 32 42 41 54 52 49 45 44 44 45 46 41 41 43 41 32 28 26 23 22 20 18 14 18 19 19 20 20 19 19 17
7 6 4 7 9 13 3 22 32 8 15 3 10 21 13 22 23 26 36 41 33 57 53 49 45 45 43 47 47 44 42 41 35 28 24 23 22 22 21 21 20 19 17 16 16 15 13 12 11
9 7 8 7 12 14 2 29 16 13 10 10 21 9 13 33 27 31 44 38 39 54 53 53 50 48 46 47 46 44 43 36 29 24 20 21 24 25 24 22 21 19 17 15 13 12 11 9 8
5 7 6 9 8 19 6 33 32 34 20 4 8 13 13 42 39 46 47 41 41 53 54 54 53 55 52 49 45 44 41 34 28 21 19 20 24 24 23 21 19 17 15 13 10 8 7 5 4
3 7 6 8 7 12 30 23 52 45 14 2 4 10 8 52 57 55 52 48 45 51 54 55 56 56 54 50 49 42 41 34 28 24 23 23 18 23 23 19 16 16 15 12 10 8 7 6 5
6 7 10 7 12 13 35 27 44 43 34 3 7 11 22 58 67 65 65 60 55 57 54 57 58 57 57 55 54 48 42 37 31 29 30 27 23 22 21 18 16 15 14 12 9 8 7 4 3
10 6 10 17 31 48 26 37 44 34 13 17 21 25 45 60 70 68 66 60 60 58 54 56 59 58 59 57 54 50 45 38 33 29 31 30 30 26 22 17 16 14 13 12 10 9 6 3 3
6 4 10 21 41 36 25 30 48 32 42 30 18 22 44 59 73 73 71 66 63 59 53 52 61 59 59 54 53 50 47 41 36 31 28 32 32 28 21 18 16 15 16 14 14 9 7 5 5
2 12 31 42 38 51 44 24 20 56 56 52 35 34 46 57 68 75 70 62 60 59 52 51 61 60 58 55 51 50 47 43 36 34 31 32 33 29 24 18 19 15 15 14 12 10 9 7 7
23 29 36 29 44 37 22 33 18 25 48 58 28 40 43 49 56 76 74 70 64 60 54 54 54 55 55 53 50 49 47 43 39 36 33 33 33 29 23 20 20 19 15 15 13 11 11 11 13
20 12 16 12 17 13 31 27 22 22 33 47 54 35 46 42 47 54 77 76 71 66 57 58 54 55 58 54 48 44 43 43 45 38 33 31 32 30 28 27 26 19 17 17 17 16 16 16 19
8 5 8 11 32 17 17 41 28 39 53 63 57 52 39 53 47 42 50 79 72 71 68 60 58 60 59 57 52 45 43 38 41 39 32 30 30 32 33 31 25 20 19 20 20 19 20 21 21
11 9 10 13 29 12 5 32 30 65 58 52 63 54 51 55 61 52 44 39 72 72 73 68 63 62 63 58 51 50 48 44 39 38 32 35 32 31 35 32 26 24 24 25 23 23 23 23 23
14 18 14 19 7 26 33 45 24 49 51 51 64 72 63 56 70 64 52 38 37 64 70 70 67 63 60 63 59 55 53 47 41 40 38 37 37 33 33 35 33 32 31 29 27 25 24 24 23
13 15 22 28 23 16 29 41 40 54 61 50 57 67 66 56 58 68 59 44 35 39 73 68 67 65 59 68 65 64 62 52 50 43 41 40 38 36 36 36 36 36 36 31 28 27 26 23 25
15 23 31 22 12 26 29 36 46 35 42 59 56 62 74 76 66 74 67 57 45 25 32 73 65 64 59 59 72 68 62 55 51 49 47 44 42 40 39 38 36 37 37 35 33 28 27 28 24
10 16 20 27 31 19 19 21 13 21 35 59 61 67 75 74 75 79 76 68 59 47 27 46 74 64 61 55 53 68 66 62 58 59 55 54 51 46 42 42 39 38 37 36 33 33 31 26 23
16 9 20 26 16 8 10 13 7 18 24 15 38 47 58 41 54 75 83 84 77 57 60 47 53 66 61 56 59 59 63 67 65 62 56 50 47 46 48 46 43 38 35 37 36 33 32 28 29
15 21 27 23 21 18 9 7 12 32 28 34 18 9 24 14 38 65 87 85 73 72 64 54 48 41 61 61 58 61 61 64 61 61 58 51 47 44 42 39 38 40 37 36 35 35 36 36 37
17 18 9 6 8 5 4 9 7 14 20 29 25 36 8 7 17 48 63 69 67 64 49 44 49 45 24 52 54 54 56 56 58 61 53 57 56 54 52 46 45 43 41 41 39 36 33 32 31
8 9 7 7 6 8 15 2 1 19 27 15 24 38 31 16 8 14 38 40 46 53 55 51 45 37 33 25 40 46 49 37 32 6 23 39 44 55 46 34 16 19 18 13 4 2 14 19 19
8 6 4 8 6 11 16 18 5 12 11 31 42 37 35 31 23 13 10 30 46 50 50 52 46 41 34 44 48 50 30 9 14 15 25 29 22 26 20 16 10 15 13 9 17 16 19 22 21
9 4 5 7 2 4 7 6 6 20 20 18 28 49 47 38 27 17 10 3 18 31 42 53 51 51 48 53 49 38 20 11 31 28 1 13 12 26 3 16 20 9 9 8 6 14 15 16 16
5 11 8 5 9 8 10 6 14 36 30 20 23 31 36 34 30 21 13 7 3 10 18 34 48 53 49 46 36 25 7 14 24 36 36 42 39 21 22 14 9 12 10 8 11 11 13 12 5
8 7 5 3 2 4 7 6 6 13 15 15 22 32 32 30 26 21 15 12 8 5 16 18 33 39 35 30 29 30 31 31 28 26 30 27 28 19 18 18 19 17 16 10 7 6 5 4 3
3 4 4 3 8 4 5 9 7 14 16 23 27 29 26 24 20 18 16 16 17 19 23 32 42 40 44 36 24 24 26 31 28 26 28 25 21 18 20 21 19 13 15 14 7 6 7 5 5
Wind_Direction_500mb
324 332 326 330 45 60 265 276 249 304 337 121 88 110 116 70 143 195 142 156 173 170 171 173 177 171 166 162 153 148 150 152 152 149 151 156 146 135 149 162 170 172 154 155 145 136 124 116 116
328 325 325 61 90 40 278 272 135 252 159 102 96 108 59 100 137 149 148 161 178 175 170 171 172 172 170 161 154 156 158 152 146 143 136 143 145 153 169 180 200 194 160 138 129 132 126 120 124
330 312 341 93 126 198 218 12 308 261 88 99 90 84 97 139 185 164 159 165 178 178 172 170 170 169 167 165 161 165 165 161 151 151 151 153 154 157 172 154 149 158 142 135 127 128 124 120 120
343 104 86 109 242 245 252 321 307 284 150 131 117 58 86 204 166 184 168 169 176 179 174 169 168 168 166 166 165 168 171 169 165 172 163 162 166 180 193 175 142 151 145 139 129 124 124 121 119
214 100 61 263 257 260 150 285 352 265 226 182 158 169 109 139 184 185 176 170 178 179 174 169 168 167 162 164 166 166 160 158 162 165 173 177 176 179 185 176 158 157 151 144 136 134 131 127 125
115 104 81 252 257 286 347 318 338 321 303 209 122 136 147 179 201 191 175 174 181 177 173 169 169 167 161 162 163 163 164 166 174 178 181 187 185 180 175 170 167 164 155 150 148 142 134 130 125
113 89 197 249 273 299 23 322 311 322 292 310 153 107 148 169 199 197 176 176 177 181 176 172 170 170 164 163 164 167 170 177 184 185 187 187 182 179 173 169 171 165 160 156 151 147 146 144 140
87 83 192 237 235 278 352 336 322 313 290 5 189 176 186 180 191 181 182 179 181 184 182 177 174 175 174 174 178 179 182 187 189 197 200 196 192 181 175 177 177 175 170 163 161 166 167 171 186
93 81 225 263 157 266 343 3 324 323 282 293 189 181 217 172 178 180 182 182 184 184 185 182 181 181 178 178 184 188 187 193 204 213 211 204 185 179 178 185 183 170 173 179 176 182 198 217 240
87 117 231 237 344 332 332 340 320 313 285 245 218 174 159 172 180 185 187 190 188 186 187 190 187 185 185 184 188 192 198 204 210 213 215 210 201 192 196 200 197 192 192 196 200 209 206 199 225
4 160 323 330 352 343 339 335 331 302 291 260 225 188 169 175 185 191 194 203 198 192 193 196 195 191 191 192 193 198 202 207 207 207 207 209 206 209 205 206 212 217 218 217 211 199 196 209 264
14 278 21 327 328 334 319 321 316 293 287 314 296 212 186 185 189 198 201 202 200 198 201 205 200 198 197 199 202 204 207 210 211 207 201 205 209 211 210 212 223 228 221 217 209 219 228 239 264
97 342 328 326 322 317 309 281 267 286 290 296 277 214 199 196 198 198 200 203 204 204 207 203 200 204 203 202 206 210 213 215 213 209 207 211 211 219 216 225 230 222 217 216 222 236 248 261 289
322 314 313 313 308 303 284 287 281 277 279 291 282 234 216 207 204 203 200 203 209 212 212 203 201 205 206 209 210 214 215 217 216 213 211 216 219 223 223 231 223 223 226 229 238 249 265 277 285
307 315 331 297 320 305 321 286 279 295 295 281 279 274 230 220 208 206 209 205 205 213 216 210 206 202 205 211 213 216 219 225 219 216 210 214 221 225 230 231 229 228 235 242 247 256 266 279 285
329 7 12 309 342 311 328 274 308 328 308 285 281 268 261 228 217 218 207 214 207 208 213 213 210 209 216 209 208 215 217 234 228 217 217 220 224 227 227 230 234 238 244 248 252 260 270 276 277
3 304 301 310 326 311 334 297 301 311 308 290 271 267 259 247 225 218 215 201 213 210 213 216 215 217 218 220 218 213 223 232 231 225 228 233 230 233 234 238 241 243 246 250 256 261 270 274 275
309 309 286 287 321 317 297 294 299 303 293 287 279 267 258 245 238 223 211 206 193 211 212 216 217 221 227 224 220 216 223 229 227 227 232 237 234 236 241 244 244 247 249 251 254 261 267 274 281
272 280 281 287 298 284 281 290 292 289 283 279 274 264 254 251 248 230 218 208 188 190 210 217 217 221 225 221 218 214 220 221 223 228 237 239 238 238 240 243 244 246 249 252 253 257 261 269 274
297 290 286 289 280 308 286 281 282 262 263 260 253 249 255 256 257 235 221 206 202 186 217 217 222 220 224 225 224 221 225 230 231 237 240 242 241 242 242 242 243 244 247 247 250 256 258 258 264
281 265 298 292 314 266 281 275 267 286 269 258 246 237 247 251 246 229 219 209 200 191 202 231 223 224 223 227 229 228 230 233 235 238 241 243 245 244 247 247 245 246 246 249 250 249 253 255 254
318 10 328 302 320 311 40 292 322 306 303 288 225 230 238 233 229 224 211 208 210 203 189 197 228 226 224 229 226 227 226 226 231 238 245 249 238 243 245 247 245 242 241 242 242 246 248 249 251
262 310 288 288 292 299 305 252 292 348 347 337 311 246 228 236 223 202 210 212 205 198 190 212 222 214 229 233 237 235 231 233 241 243 242 244 246 242 251 247 240 239 241 241 243 240 245 250 257
279 295 261 235 284 276 215 177 323 350 328 347 349 23 62 201 190 200 201 210 212 202 194 206 211 201 200 228 234 236 244 245 243 245 252 245 241 233 232 233 236 239 240 244 246 251 256 262 264
336 320 332 352 4 268 346 14 309 343 355 339 335 8 29 47 92 196 207 211 223 219 208 209 210 203 196 203 224 230 220 217 218 137 234 228 233 236 227 217 191 195 198 185 177 255 285 282 290
313 335 15 301 336 320 359 346 316 11 18 349 359 15 21 30 39 61 194 207 206 217 212 209 221 214 210 202 206 209 207 225 323 342 38 47 57 80 117 155 174 199 280 292 6 352 324 287 274
321 24 236 263 76 332 293 327 198 354 354 20 7 12 11 12 13 15 35 199 222 220 217 212 214 221 217 208 194 204 208 68 50 44 330 344 277 273 339 71 64 50 87 56 100 254 258 277 264
240 323 14 1 6 340 316 20 343 341 351 358 352 13 11 6 9 10 7 10 276 232 236 215 208 208 202 195 193 185 336 20 83 59 71 83 97 131 120 115 143 171 201 226 209 216 238 258 289
344 359 336 246 33 325 324 295 328 300 320 346 1 14 13 14 10 15 28 37 48 151 185 158 156 163 159 136 116 118 114 115 111 123 125 132 135 160 162 173 165 189 186 192 202 184 157 138 127
256 324 6 360 336 292 277 274 346 340 350 359 8 21 25 29 30 35 55 69 83 95 112 132 122 121 119 108 112 116 140 130 136 147 152 165 170 153 147 137 138 155 139 132 142 127 110 84 48
Wind_Speed_850mb
23 25 30 3 7 8 7 10 7 7 4 4 9 14 15 9 7 7 18 35 46 51 52 45 41 41 40 39 42 41 37 36 31 27 28 39 38 29 27 22 17 16 13 15 13 16 17 21 25
22 22 14 3 8 3 10 9 5 5 3 11 23 21 9 4 7 19 40 32 32 48 53 47 46 43 42 43 50 41 41 35 32 31 36 50 40 32 27 22 19 17 13 16 16 22 24 25 25
17 18 5 5 6 8 8 6 12 2 3 2 6 15 7 12 13 31 20 36 37 51 53 50 47 43 41 44 54 47 44 36 31 32 37 39 37 33 28 22 12 19 21 20 21 24 24 24 23
9 3 1 4 13 13 6 14 33 14 5 7 12 10 7 8 28 26 27 38 42 51 52 51 47 43 42 46 50 45 39 35 34 33 32 30 29 27 20 13 12 22 22 21 23 24 23 22 20
3 5 3 5 12 9 1 15 23 13 5 14 15 10 9 28 19 25 32 42 41 54 52 49 45 44 44 45 46 41 41 43 41 32 28 26 23 22 20 18 14 18 19 19 20 20 19 19 17
7 6 4 7 9 13 3 22 32 8 15 3 10 21 13 22 23 26 36 41 33 57 53 49 45 45 43 47 47 44 42 41 35 28 24 23 22 22 21 21 20 19 17 16 16 15 13 12 11
9 7 8 7 12 14 2 29 16 13 10 10 21 9 13 33 27 31 44 38 39 54 53 53 50 48 46 47 46 44 43 36 29 24 20 21 24 25 24 22 21 19 17 15 13 12 11 9 8
5 7 6 9 8 19 6 33 32 34 20 4 8 13 13 42 39 46 47 41 41 53 54 54 53 55 52 49 45 44 41 34 28 21 19 20 24 24 23 21 19 17 15 13 10 8 7 5 4
3 7 6 8 7 12 30 23 52 45 14 2 4 10 8 52 57 55 52 48 45 51 54 55 56 56 54 50 49 42 41 34 28 24 23 23 18 23 23 19 16 16 15 12 10 8 7 6 5
6 7 10 7 12 13 35 27 44 43 34 3 7 11 22 58 67 65 65 60 55 57 54 57 58 57 57 55 54 48 42 37 31 29 30 27 23 22 21 18 16 15 14 12 9 8 7 4 3
10 6 10 17 31 48 26 37 44 34 13 17 21 25 45 60 70 68 66 60 60 58 54 56 59 58 59 57 54 50 45 38 33 29 31 30 30 26 22 17 16 14 13 12 10 9 6 3 3
6 4 10 21 41 36 25 30 48 32 42 30 18 22 44 59 73 73 71 66 63 59 53 52 61 59 59 54 53 50 47 41 36 31 28 32 32 28 21 18 16 15 16 14 14 9 7 5 5
2 12 31 42 38 51 44 24 20 56 56 52 35 34 46 57 68 75 70 62 60 59 52 51 61 60 58 55 51 50 47 43 36 34 31 32 33 29 24 18 19 15 15 14 12 10 9 7 7
23 29 36 29 44 37 22 33 18 25 48 58 28 40 43 49 56 76 74 70 64 60 54 54 54 55 55 53 50 49 47 43 39 36 33 33 33 29 23 20 20 19 15 15 13 11 11 11 13
20 12 16 12 17 13 31 27 22 22 33 47 54 35 46 42 47 54 77 76 71 66 57 58 54 55 58 54 48 44 43 43 45 38 33 31 32 30 28 27 26 19 17 17 17 16 16 16 19
8 5 8 11 32 17 17 41 28 39 53 63 57 52 39 53 47 42 50 79 72 71 68 60 58 60 59 57 52 45 43 38 41 39 32 30 30 32 33 31 25 20 19 20 20 19 20 21 21
11 9 10 13 29 12 5 32 30 65 58 52 63 54 51 55 61 52 44 39 72 72 73 68 63 62 63 58 51 50 48 44 39 38 32 35 32 31 35 32 26 24 24 25 23 23 23 23 23
14 18 14 19 7 26 33 45 24 49 51 51 64 72 63 56 70 64 52 38 37 64 70 70 67 63 60 63 59 55 53 47 41 40 38 37 37 33 33 35 33 32 31 29 27 25 24 24 23
13 15 22 28 23 16 29 41 40 54 61 50 57 67 66 56 58 68 59 44 35 39 73 68 67 65 59 68 65 64 62 52 50 43 41 40 38 36 36 36 36 36 36 31 28 27 26 23 25
15 23 31 22 12 26 29 36 46 35 42 59 56 62 74 76 66 74 67 57 45 25 32 73 65 64 59 59 72 68 62 55 51 49 47 44 42 40 39 38 36 37 37 35 33 28 27 28 24
10 16 20 27 31 19 19 21 13 21 35 59 61 67 75 74 75 79 76 68 59 47 27 46 74 64 61 55 53 68 66 62 58 59 55 54 51 46 42 42 39 38 37 36 33 33 31 26 23
16 9 20 26 16 8 10 13 7 18 24 15 38 47 58 41 54 75 83 84 77 57 60 47 53 66 61 56 59 59 63 67 65 62 56 50 47 46 48 46 43 38 35 37 36 33 32 28 29
15 21 27 23 21 18 9 7 12 32 28 34 18 9 24 14 38 65 87 85 73 72 64 54 48 41 61 61 58 61 61 64 61 61 58 51 47 44 42 39 38 40 37 36 35 35 36 36 37
17 18 9 6 8 5 4 9 7 14 20 29 25 36 8 7 17 48 63 69 67 64 49 44 49 45 24 52 54 54 56 56 58 61 53 57 56 54 52 46 45 43 41 41 39 36 33 32 31
8 9 7 7 6 8 15 2 1 19 27 15 24 38 31 16 8 14 38 40 46 53 55 51 45 37 33 25 40 46 49 37 32 6 23 39 44 55 46 34 16 19 18 13 4 2 14 19 19
8 6 4 8 6 11 16 18 5 12 11 31 42 37 35 31 23 13 10 30 46 50 50 52 46 41 34 44 48 50 30 9 14 15 25 29 22 26 20 16 10 15 13 9 17 16 19 22 21
9 4 5 7 2 4 7 6 6 20 20 18 28 49 47 38 27 17 10 3 18 31 42 53 51 51 48 53 49 38 20 11 31 28 1 13 12 26 3 16 20 9 9 8 6 14 15 16 16
5 11 8 5 9 8 10 6 14 36 30 20 23 31 36 34 30 21 13 7 3 10 18 34 48 53 49 46 36 25 7 14 24 36 36 42 39 21 22 14 9 12 10 8 11 11 13 12 5
8 7 5 3 2 4 7 6 6 13 15 15 22 32 32 30 26 21 15 12 8 5 16 18 33 39 35 30 29 30 31 31 28 26 30 27 28 19 18 18 19 17 16 10 7 6 5 4 3
3 4 4 3 8 4 5 9 7 14 16 23 27 29 26 24 20 18 16 16 17 19 23 32 42 40 44 36 24 24 26 31 28 26 28 25 21 18 20 21 19 13 15 14 7 6 7 5 5
Wind_Direction_850mb
324 332 326 330 45 60 265 276 249 304 337 121 88 110 116 70 143 195 142 156 173 170 171 173 177 171 166 162 153 148 150 152 152 149 151 156 146 135 149 162 170 172 154 155 145 136 124 116 116
328 325 325 61 90 40 278 272 135 252 159 102 96 108 59 100 137 149 148 161 178 175 170 171 172 172 170 161 154 156 158 152 146 143 136 143 145 153 169 180 200 194 160 138 129 132 126 120 124
330 312 341 93 126 198 218 12 308 261 88 99 90 84 97 139 185 164 159 165 178 178 172 170 170 169 167 165 161 165 165 161 151 151 151 153 154 157 172 154 149 158 142 135 127 128 124 120 120
343 104 86 109 242 245 252 321 307 284 150 131 117 58 86 204 166 184 168 169 176 179 174 169 168 168 166 166 165 168 171 169 165 172 163 162 166 180 193 175 142 151 145 139 129 124 124 121 119
214 100 61 263 257 260 150 285 352 265 226 182 158 169 109 139 184 185 176 170 178 179 174 169 168 167 162 164 166 166 160 158 162 165 173 177 176 179 185 176 158 157 151 144 136 134 131 127 125
115 104 81 252 257 286 347 318 338 321 303 209 122 136 147 179 201 191 175 174 181 177 173 169 169 167 161 162 163 163 164 166 174 178 181 187 185 180 175 170 167 164 155 150 148 142 134 130 125
113 89 197 249 273 299 23 322 311 322 292 310 153 107 148 169 199 197 176 176 177 181 176 172 170 170 164 163 164 167 170 177 184 185 187 187 182 179 173 169 171 165 160 156 151 147 146 144 140
87 83 192 237 235 278 352 336 322 313 290 5 189 176 186 180 191 181 182 179 181 184 182 177 174 175 174 174 178 179 182 187 189 197 200 196 192 181 175 177 177 175 170 163 161 166 167 171 186
93 81 225 263 157 266 343 3 324 323 282 293 189 181 217 172 178 180 182 182 184 184 185 182 181 181 178 178 184 188 187 193 204 213 211 204 185 179 178 185 183 170 173 179 176 182 198 217 240
87 117 231 237 344 332 332 340 320 313 285 245 218 174 159 172 180 185 187 190 188 186 187 190 187 185 185 184 188 192 198 204 210 213 215 210 201 192 196 200 197 192 192 196 200 209 206 199 225
4 160 323 330 352 343 339 335 331 302 291 260 225 188 169 175 185 191 194 203 198 192 193 196 195 191 191 192 193 198 202 207 207 207 207 209 206 209 205 206 212 217 218 217 211 199 196 209 264
14 278 21 327 328 334 319 321 316 293 287 314 296 212 186 185 189 198 201 202 200 198 201 205 200 198 197 199 202 204 207 210 211 207 201 205 209 211 210 212 223 228 221 217 209 219 228 239 264
97 342 328 326 322 317 309 281 267 286 290 296 277 214 199 196 198 198 200 203 204 204 207 203 200 204 203 202 206 210 213 215 213 209 207 211 211 219 216 225 230 222 217 216 222 236 248 261 289
322 314 313 313 308 303 284 287 281 277 279 291 282 234 216 207 204 203 200 203 209 212 212 203 201 205 206 209 210 214 215 217 216 213 211 216 219 223 223 231 223 223 226 229 238 249 265 277 285
307 315 331 297 320 305 321 286 279 295 295 281 279 274 230 220 208 206 209 205 205 213 216 210 206 202 205 211 213 216 219 225 219 216 210 214 221 225 230 231 229 228 235 242 247 256 266 279 285
329 7 12 309 342 311 328 274 308 328 308 285 281 268 261 228 217 218 207 214 207 208 213 213 210 209 216 209 208 215 217 234 228 217 217 220 224 227 227 230 234 238 244 248 252 260 270 276 277
3 304 301 310 326 311 334 297 301 311 308 290 271 267 259 247 225 218 215 201 213 210 213 216 215 217 218 220 218 213 223 232 231 225 228 233 230 233 234 238 241 243 246 250 256 261 270 274 275
309 309 286 287 321 317 297 294 299 303 293 287 279 267 258 245 238 223 211 206 193 211 212 216 217 221 227 224 220 216 223 229 227 227 232 237 234 236 241 244 244 247 249 251 254 261 267 274 281
272 280 281 287 298 284 281 290 292 289 283 279 274 264 254 251 248 230 218 208 188 190 210 217 217 221 225 221 218 214 220 221 223 228 237 239 238 238 240 243 244 246 249 252 253 257 261 269 274
297 290 286 289 280 308 286 281 282 262 263 260 253 249 255 256 257 235 221 206 202 186 217 217 222 220 224 225 224 221 225 230 231 237 240 242 241 242 242 242 243 244 247 247 250 256 258 258 264
281 265 298 292 314 266 281 275 267 286 269 258 246 237 247 251 246 229 219 209 200 191 202 231 223 224 223 227 229 228 230 233 235 238 241 243 245 244 247 247 245 246 246 249 250 249 253 255 254
318 10 328 302 320 311 40 292 322 306 303 288 225 230 238 233 229 224 211 208 210 203 189 197 228 226 224 229 226 227 226 226 231 238 245 249 238 243 245 247 245 242 241 242 242 246 248 249 251
262 310 288 288 292 299 305 252 292 348 347 337 311 246 228 236 223 202 210 212 205 198 190 212 222 214 229 233 237 235 231 233 241 243 242 244 246 242 251 247 240 239 241 241 243 240 245 250 257
279 295 261 235 284 276 215 177 323 350 328 347 349 23 62 201 190 200 201 210 212 202 194 206 211 201 200 228 234 236 244 245 243 245 252 245 241 233 232 233 236 239 240 244 246 251 256 262 264
336 320 332 352 4 268 346 14 309 343 355 339 335 8 29 47 92 196 207 211 223 219 208 209 210 203 196 203 224 230 220 217 218 137 234 228 233 236 227 217 191 195 198 185 177 255 285 282 290
313 335 15 301 336 320 359 346 316 11 18 349 359 15 21 30 39 61 194 207 206 217 212 209 221 214 210 202 206 209 207 225 323 342 38 47 57 80 117 155 174 199 280 292 6 352 324 287 274
321 24 236 263 76 332 293 327 198 354 354 20 7 12 11 12 13 15 35 199 222 220 217 212 214 221 217 208 194 204 208 68 50 44 330 344 277 273 339 71 64 50 87 56 100 254 258 277 264
240 323 14 1 6 340 316 20 343 341 351 358 352 13 11 6 9 10 7 10 276 232 236 215 208 208 202 195 193 185 336 20 83 59 71 83 97 131 120 115 143 171 201 226 209 216 238 258 289
344 359 336 246 33 325 324 295 328 300 320 346 1 14 13 14 10 15 28 37 48 151 185 158 156 163 159 136 116 118 114 115 111 123 125 132 135 160 162 173 165 189 186 192 202 184 157 138 127
256 324 6 360 336 292 277 274 346 340 350 359 8 21 25 29 30 35 55 69 83 95 112 132 122 121 119 108 112 116 140 130 136 147 152 165 170 153 147 137 138 155 139 132 142 127 110 84 48